UAL576 KMSP-KORD

Flight info

Callsign UAL576
Flight time N/A
Altitude 31000
Route RST1 RST ZZIPR FYTTE7
Aircraft A319/M-SDE3FGHIRWY/LB1

Departure

Time 2026-05-06 05:10
Airport Minneapolis–Saint Paul International Airport / Wold–Chamberlain Field (KMSP)

Arrival

Time N/A
Airport Chicago O'Hare International Airport (KORD)
Time Latitude Longitude Altitude Speed Heading
2026-05-06 04:45 44.88511 -93.21368 825 ft 0 kts 57°
2026-05-06 04:58 44.88505 -93.21381 825 ft 3 kts 57°
2026-05-06 04:59 44.88495 -93.21403 822 ft 3 kts 57°
2026-05-06 04:59 44.88483 -93.21422 825 ft 3 kts 33°
2026-05-06 04:59 44.88466 -93.21431 822 ft 3 kts
2026-05-06 04:59 44.88451 -93.21422 821 ft 2 kts 288°
2026-05-06 05:00 44.88450 -93.21420 825 ft 0 kts 288°
2026-05-06 05:03 44.88456 -93.21437 823 ft 3 kts 297°
2026-05-06 05:04 44.88474 -93.21479 823 ft 7 kts 302°
2026-05-06 05:04 44.88506 -93.21548 825 ft 10 kts 302°
2026-05-06 05:04 44.88521 -93.21647 824 ft 12 kts 237°
2026-05-06 05:04 44.88453 -93.21743 825 ft 15 kts 227°
2026-05-06 05:05 44.88378 -93.21850 821 ft 14 kts 225°
2026-05-06 05:05 44.88304 -93.21939 825 ft 10 kts 216°
2026-05-06 05:05 44.88252 -93.21905 825 ft 11 kts 121°
2026-05-06 05:05 44.88207 -93.21800 824 ft 14 kts 121°
2026-05-06 05:06 44.88151 -93.21670 823 ft 17 kts 121°
2026-05-06 05:06 44.88086 -93.21521 825 ft 19 kts 121°
2026-05-06 05:06 44.88014 -93.21353 822 ft 21 kts 122°
2026-05-06 05:06 44.87932 -93.21164 821 ft 24 kts 121°
2026-05-06 05:07 44.87843 -93.20957 822 ft 26 kts 121°
2026-05-06 05:07 44.87746 -93.20733 826 ft 28 kts 121°
2026-05-06 05:07 44.87644 -93.20497 825 ft 24 kts 121°
2026-05-06 05:07 44.87559 -93.20299 825 ft 25 kts 121°
2026-05-06 05:08 44.87498 -93.20161 826 ft 12 kts 122°
2026-05-06 05:08 44.87459 -93.20076 826 ft 7 kts 134°
2026-05-06 05:08 44.87417 -93.20075 826 ft 7 kts 209°
2026-05-06 05:08 44.87368 -93.20114 828 ft 9 kts 210°
2026-05-06 05:09 44.87367 -93.20155 827 ft 0 kts 302°
2026-05-06 05:09 44.87371 -93.20164 824 ft 12 kts 302°
2026-05-06 05:10 44.87537 -93.20547 825 ft 78 kts 301°
2026-05-06 05:10 44.87930 -93.21455 822 ft 137 kts 301°
2026-05-06 05:10 44.88467 -93.22702 1271 ft 149 kts 302°
2026-05-06 05:10 44.89001 -93.23934 2116 ft 145 kts 306°
2026-05-06 05:11 44.89511 -93.25111 2905 ft 140 kts 305°
2026-05-06 05:11 44.90041 -93.26381 3329 ft 161 kts 303°
2026-05-06 05:11 44.90653 -93.27839 3708 ft 184 kts 304°
2026-05-06 05:11 44.91678 -93.29059 4046 ft 210 kts 338°
2026-05-06 05:12 44.93224 -93.29215 4566 ft 241 kts
2026-05-06 05:12 44.94761 -93.28061 5410 ft 262 kts 39°
2026-05-06 05:12 44.95962 -93.26070 6469 ft 273 kts 55°
2026-05-06 05:12 44.96600 -93.23538 7424 ft 286 kts 81°
2026-05-06 05:13 44.96359 -93.20718 8398 ft 296 kts 111°
2026-05-06 05:13 44.95180 -93.18328 9390 ft 300 kts 141°
2026-05-06 05:13 44.93336 -93.17009 10329 ft 298 kts 172°
2026-05-06 05:13 44.91242 -93.16858 10955 ft 310 kts 185°
2026-05-06 05:14 44.89041 -93.16954 11407 ft 328 kts 186°
2026-05-06 05:14 44.86737 -93.17084 12196 ft 334 kts 186°
2026-05-06 05:14 44.84397 -93.17218 13075 ft 338 kts 186°
2026-05-06 05:14 44.82032 -93.17345 13917 ft 342 kts 186°
2026-05-06 05:15 44.79648 -93.17460 14671 ft 345 kts 186°
2026-05-06 05:15 44.77237 -93.17575 15420 ft 348 kts 186°
2026-05-06 05:15 44.74800 -93.17688 16178 ft 351 kts 186°
2026-05-06 05:15 44.72345 -93.17796 16929 ft 354 kts 186°
2026-05-06 05:16 44.69895 -93.17900 17671 ft 357 kts 186°
2026-05-06 05:16 44.67398 -93.18009 18395 ft 360 kts 187°
2026-05-06 05:16 44.64866 -93.17978 19043 ft 367 kts 180°
2026-05-06 05:16 44.62325 -93.17309 19709 ft 376 kts 170°
2026-05-06 05:17 44.59849 -93.15954 20378 ft 386 kts 160°
2026-05-06 05:17 44.57456 -93.14283 21009 ft 390 kts 160°
2026-05-06 05:17 44.55010 -93.12574 21547 ft 394 kts 162°
2026-05-06 05:17 44.52542 -93.10852 22109 ft 399 kts 162°
2026-05-06 05:18 44.50038 -93.09104 22691 ft 403 kts 163°
2026-05-06 05:18 44.47516 -93.07341 23272 ft 406 kts 163°
2026-05-06 05:18 44.44968 -93.05561 23792 ft 410 kts 164°
2026-05-06 05:18 44.42436 -93.03801 24208 ft 414 kts 165°
2026-05-06 05:19 44.39848 -93.02006 24691 ft 417 kts 165°
2026-05-06 05:19 44.37243 -93.00196 25122 ft 420 kts 166°
2026-05-06 05:19 44.34611 -92.98372 25560 ft 423 kts 166°
2026-05-06 05:19 44.31958 -92.96537 26016 ft 426 kts 166°
2026-05-06 05:20 44.29292 -92.94692 26476 ft 429 kts 166°
2026-05-06 05:20 44.26611 -92.92837 26930 ft 431 kts 166°
2026-05-06 05:20 44.23915 -92.90974 27378 ft 434 kts 166°
2026-05-06 05:20 44.21237 -92.89116 27818 ft 436 kts 166°
2026-05-06 05:21 44.18508 -92.87224 28214 ft 439 kts 166°
2026-05-06 05:21 44.15760 -92.85327 28658 ft 441 kts 166°
2026-05-06 05:21 44.12990 -92.83421 29078 ft 444 kts 166°
2026-05-06 05:21 44.10208 -92.81509 29520 ft 447 kts 166°
2026-05-06 05:22 44.07408 -92.79588 29966 ft 450 kts 166°
2026-05-06 05:22 44.04630 -92.77686 30322 ft 452 kts 166°
2026-05-06 05:22 44.01790 -92.75745 30649 ft 455 kts 166°
2026-05-06 05:22 43.98938 -92.73793 30877 ft 458 kts 166°
2026-05-06 05:23 43.96080 -92.71833 30979 ft 454 kts 165°
2026-05-06 05:23 43.93292 -92.69902 30990 ft 440 kts 166°
2026-05-06 05:23 43.87790 -92.66143 30998 ft 453 kts 166°
2026-05-06 05:24 43.81989 -92.62254 30999 ft 472 kts 165°
2026-05-06 05:24 43.79078 -92.59925 30973 ft 493 kts 154°
2026-05-06 05:24 43.76436 -92.56749 30992 ft 512 kts 142°
2026-05-06 05:25 43.71761 -92.49274 30993 ft 516 kts 140°
2026-05-06 05:25 43.67058 -92.41781 30987 ft 516 kts 140°
2026-05-06 05:26 43.62329 -92.34305 30982 ft 516 kts 140°
2026-05-06 05:26 43.57630 -92.26899 30961 ft 514 kts 139°
2026-05-06 05:27 43.52916 -92.19470 30977 ft 514 kts 140°
2026-05-06 05:27 43.48213 -92.12062 30978 ft 513 kts 140°
2026-05-06 05:28 43.43504 -92.04671 30979 ft 513 kts 140°
2026-05-06 05:28 43.38791 -91.97310 30970 ft 512 kts 139°
2026-05-06 05:29 43.34110 -91.90025 30977 ft 511 kts 139°
2026-05-06 05:29 43.29403 -91.82686 30960 ft 510 kts 139°
2026-05-06 05:30 43.24736 -91.75418 30961 ft 510 kts 139°
2026-05-06 05:30 43.20040 -91.68106 30929 ft 512 kts 136°
2026-05-06 05:31 43.16379 -91.59557 30972 ft 526 kts 121°
2026-05-06 05:31 43.13261 -91.50511 30969 ft 525 kts 121°
2026-05-06 05:32 43.10172 -91.41531 30983 ft 524 kts 121°
2026-05-06 05:32 43.07043 -91.32511 30981 ft 523 kts 122°
2026-05-06 05:33 43.03924 -91.23579 30977 ft 523 kts 121°
2026-05-06 05:33 43.00801 -91.14593 30940 ft 523 kts 121°
2026-05-06 05:34 42.98208 -91.07133 30950 ft 522 kts 121°
2026-05-06 05:34 42.94565 -90.96718 30963 ft 522 kts 122°
2026-05-06 05:35 42.91423 -90.87773 30971 ft 522 kts 122°
2026-05-06 05:35 42.88819 -90.80367 30974 ft 522 kts 122°
2026-05-06 05:36 42.85666 -90.71433 30952 ft 522 kts 122°
2026-05-06 05:36 42.82514 -90.62511 30958 ft 522 kts 122°
2026-05-06 05:37 42.79367 -90.53660 30958 ft 522 kts 122°
2026-05-06 05:37 42.76200 -90.44764 30961 ft 522 kts 122°
2026-05-06 05:38 42.73024 -90.35879 30964 ft 522 kts 122°
2026-05-06 05:38 42.69832 -90.27016 30961 ft 522 kts 122°
2026-05-06 05:39 42.68228 -90.22577 30701 ft 523 kts 122°
2026-05-06 05:39 42.66623 -90.18137 30442 ft 522 kts 122°
2026-05-06 05:39 42.65022 -90.13718 30194 ft 521 kts 122°
2026-05-06 05:39 42.63420 -90.09307 29931 ft 521 kts 122°
2026-05-06 05:40 42.61814 -90.04896 29435 ft 521 kts 122°
2026-05-06 05:40 42.60205 -90.00490 28841 ft 521 kts 123°
2026-05-06 05:40 42.58593 -89.96079 28235 ft 523 kts 123°
2026-05-06 05:40 42.56972 -89.91648 27677 ft 525 kts 123°
2026-05-06 05:41 42.55344 -89.87205 27113 ft 526 kts 123°
2026-05-06 05:41 42.53716 -89.82765 26573 ft 527 kts 123°
2026-05-06 05:41 42.52211 -89.78223 26020 ft 534 kts 115°
2026-05-06 05:41 42.51297 -89.73294 25375 ft 543 kts 104°
2026-05-06 05:42 42.50678 -89.68237 24700 ft 544 kts 103°
2026-05-06 05:42 42.50070 -89.63170 24019 ft 545 kts 103°
2026-05-06 05:42 42.49463 -89.58096 23316 ft 546 kts 103°
2026-05-06 05:42 42.48851 -89.53029 22619 ft 543 kts 103°
2026-05-06 05:43 42.48238 -89.48021 21540 ft 536 kts 103°
2026-05-06 05:43 42.47629 -89.43085 20802 ft 524 kts 103°
2026-05-06 05:43 42.47049 -89.38376 20541 ft 510 kts 103°
2026-05-06 05:43 42.46465 -89.33643 19988 ft 507 kts 103°
2026-05-06 05:44 42.45886 -89.28964 19298 ft 501 kts 103°
2026-05-06 05:44 42.45311 -89.24337 18641 ft 496 kts 103°
2026-05-06 05:44 42.44743 -89.19757 17941 ft 491 kts 103°
2026-05-06 05:44 42.44181 -89.15222 17280 ft 486 kts 102°
2026-05-06 05:45 42.43623 -89.10736 16643 ft 481 kts 102°
2026-05-06 05:45 42.43064 -89.06287 16097 ft 477 kts 102°
2026-05-06 05:45 42.42505 -89.01890 15437 ft 472 kts 102°
2026-05-06 05:45 42.41950 -88.97537 14811 ft 466 kts 102°
2026-05-06 05:46 42.41403 -88.93230 14193 ft 462 kts 102°
2026-05-06 05:46 42.40866 -88.88976 13545 ft 457 kts 102°
2026-05-06 05:46 42.40334 -88.84778 12917 ft 450 kts 101°
2026-05-06 05:46 42.39806 -88.80625 12317 ft 443 kts 101°
2026-05-06 05:47 42.39286 -88.76559 11739 ft 436 kts 101°
2026-05-06 05:47 42.38770 -88.72558 11221 ft 429 kts 101°
2026-05-06 05:47 42.38252 -88.68583 11027 ft 427 kts 100°
2026-05-06 05:47 42.37738 -88.64642 11056 ft 426 kts 100°
2026-05-06 05:48 42.37223 -88.60690 11054 ft 426 kts 100°
2026-05-06 05:48 42.36714 -88.56800 11053 ft 426 kts 100°
2026-05-06 05:48 42.36196 -88.52855 11054 ft 426 kts 101°
2026-05-06 05:48 42.35674 -88.48905 11054 ft 426 kts 101°
2026-05-06 05:49 42.35154 -88.44965 11047 ft 426 kts 101°
2026-05-06 05:49 42.34562 -88.41044 11044 ft 425 kts 108°
2026-05-06 05:49 42.33328 -88.37453 11049 ft 421 kts 125°
2026-05-06 05:49 42.31637 -88.34237 11048 ft 420 kts 128°
2026-05-06 05:50 42.29917 -88.31050 11049 ft 419 kts 129°
2026-05-06 05:50 42.28119 -88.27955 11045 ft 419 kts 132°
2026-05-06 05:50 42.26244 -88.24949 11043 ft 418 kts 133°
2026-05-06 05:50 42.24331 -88.21994 11042 ft 418 kts 134°
2026-05-06 05:51 42.22410 -88.19055 11045 ft 418 kts 134°
2026-05-06 05:51 42.20445 -88.16171 11036 ft 416 kts 141°
2026-05-06 05:51 42.18073 -88.14018 11021 ft 407 kts 159°
2026-05-06 05:51 42.15456 -88.12616 11031 ft 405 kts 163°
2026-05-06 05:52 42.12824 -88.11268 11034 ft 401 kts 163°
2026-05-06 05:52 42.10294 -88.09966 11033 ft 376 kts 163°
2026-05-06 05:52 42.07932 -88.08743 11028 ft 353 kts 163°
2026-05-06 05:52 42.05706 -88.07592 11034 ft 332 kts 163°
2026-05-06 05:53 42.03607 -88.06514 11010 ft 314 kts 164°
2026-05-06 05:53 42.01615 -88.05498 11009 ft 298 kts 165°
2026-05-06 05:53 41.99746 -88.04549 11008 ft 284 kts 165°
2026-05-06 05:53 41.97920 -88.03624 11007 ft 270 kts 165°
2026-05-06 05:54 41.96193 -88.02753 10997 ft 259 kts 166°
2026-05-06 05:54 41.94550 -88.01928 10827 ft 254 kts 166°
2026-05-06 05:54 41.92900 -88.01098 10576 ft 252 kts 165°
2026-05-06 05:54 41.91296 -88.00120 10326 ft 256 kts 153°
2026-05-06 05:55 41.89932 -87.98560 10059 ft 261 kts 134°
2026-05-06 05:55 41.88960 -87.96490 9791 ft 264 kts 115°
2026-05-06 05:55 41.88490 -87.94113 9505 ft 265 kts 96°
2026-05-06 05:55 41.88456 -87.91650 9216 ft 263 kts 89°
2026-05-06 05:56 41.88460 -87.89208 8943 ft 261 kts 89°
2026-05-06 05:56 41.88454 -87.86786 8682 ft 259 kts 90°
2026-05-06 05:56 41.88446 -87.84382 8447 ft 256 kts 89°
2026-05-06 05:56 41.88441 -87.82004 8162 ft 254 kts 89°
2026-05-06 05:57 41.88437 -87.79641 7902 ft 252 kts 89°
2026-05-06 05:57 41.88431 -87.77308 7640 ft 249 kts 89°
2026-05-06 05:57 41.88427 -87.74995 7381 ft 247 kts 89°
2026-05-06 05:57 41.88426 -87.72702 7120 ft 245 kts 89°
2026-05-06 05:58 41.88424 -87.70431 6863 ft 242 kts 89°
2026-05-06 05:58 41.88421 -87.68174 6598 ft 240 kts 89°
2026-05-06 05:58 41.88418 -87.65942 6335 ft 239 kts 89°
2026-05-06 05:58 41.88415 -87.63726 6009 ft 237 kts 88°
2026-05-06 05:59 41.88742 -87.61610 5649 ft 230 kts 59°
2026-05-06 05:59 41.89801 -87.60136 5304 ft 220 kts 25°
2026-05-06 05:59 41.91245 -87.59710 4966 ft 212 kts 358°
2026-05-06 05:59 41.92711 -87.59873 4595 ft 211 kts 353°
2026-05-06 06:00 41.94166 -87.60119 4221 ft 210 kts 352°
2026-05-06 06:00 41.95596 -87.60399 4007 ft 205 kts 348°
2026-05-06 06:00 41.96922 -87.61130 4025 ft 210 kts 328°
2026-05-06 06:00 41.97992 -87.62452 4037 ft 211 kts 308°
2026-05-06 06:01 41.98650 -87.64217 4039 ft 215 kts 288°
2026-05-06 06:01 41.98805 -87.66227 3997 ft 217 kts 273°
2026-05-06 06:01 41.98806 -87.68224 3758 ft 211 kts 273°
2026-05-06 06:01 41.98807 -87.70181 3492 ft 207 kts 273°
2026-05-06 06:02 41.98811 -87.72094 3237 ft 202 kts 274°
2026-05-06 06:02 41.98814 -87.73946 2940 ft 194 kts 274°
2026-05-06 06:02 41.98815 -87.75690 2684 ft 179 kts 275°
2026-05-06 06:02 41.98816 -87.77262 2458 ft 156 kts 275°
2026-05-06 06:03 41.98818 -87.78636 2247 ft 141 kts 276°
2026-05-06 06:03 41.98820 -87.79919 2056 ft 135 kts 277°
2026-05-06 06:03 41.98822 -87.81169 1879 ft 133 kts 276°
2026-05-06 06:03 41.98812 -87.82403 1712 ft 132 kts 277°
2026-05-06 06:04 41.98821 -87.83634 1540 ft 131 kts 276°
2026-05-06 06:04 41.98829 -87.84858 1346 ft 130 kts 275°
2026-05-06 06:04 41.98833 -87.86063 1165 ft 128 kts 274°
2026-05-06 06:04 41.98831 -87.87245 980 ft 128 kts 273°
2026-05-06 06:05 41.98830 -87.88447 812 ft 129 kts 272°
2026-05-06 06:05 41.98831 -87.89631 670 ft 116 kts 270°
2026-05-06 06:05 41.98830 -87.90571 673 ft 92 kts 270°
2026-05-06 06:05 41.98832 -87.91765 729 ft 159 kts 272°
2026-05-06 06:06 41.98854 -87.93321 1393 ft 174 kts 283°
2026-05-06 06:06 41.99280 -87.94862 1991 ft 173 kts 301°
2026-05-06 06:06 41.99826 -87.96303 2173 ft 174 kts 303°
2026-05-06 06:06 42.00179 -87.97708 2289 ft 153 kts 275°
2026-05-06 06:07 41.99652 -87.98912 2206 ft 157 kts 214°
2026-05-06 06:07 41.98640 -87.98863 1652 ft 152 kts 136°
2026-05-06 06:07 41.98475 -87.97679 1237 ft 132 kts 63°
2026-05-06 06:07 41.98767 -87.96537 1151 ft 129 kts 75°
2026-05-06 06:08 41.98821 -87.95341 1042 ft 128 kts 86°
2026-05-06 06:08 41.98824 -87.94145 857 ft 127 kts 85°
2026-05-06 06:08 41.98828 -87.92969 686 ft 125 kts 86°
2026-05-06 06:08 41.98830 -87.91952 670 ft 88 kts 90°